User: anonymous   Login
Location: Hiram
(41.3130°N, 81.1440°W)
Time: 21:26:33
(UTC-05:00)
Language:

Iridium 62 - Orbit

View from above orbital plane
View from above orbital plane
View from above satellite
View from above satellite

Ground track
Ground track

The orbit data is extracted from the following two-line orbital elements,

1 25285U 98021A   18020.40298727  .00000171  00000-0  53842-4 0  9997
2 25285  86.3988 133.1655 0002166  94.3703 265.7741 14.34215559 36157
Epoch (UTC): 20 January 2018 09:40:18
Eccentricity: 0.0002166
inclination: 86.3988°
perigee height: 776 km
apogee height: 779 km
right ascension of ascending node: 133.1655°
argument of perigee: 94.3703°
revolutions per day: 14.34215559
mean anomaly at epoch: 265.7741°
orbit number at epoch: 3615

The dashed part of the orbit path shows where the satellite is in the earth's shadow,  

DLR